Home   Weather   Río Grande   Past weeks

Flag for Argentina Past Weather in Río Grande, Tierra del Fuego, Argentina — Yesterday and Last 2 Weeks

Now
64 °F

Scattered clouds.


Feels Like: 64 °F
Forecast: N/A
Wind: 22 mph from Northwest

Location: Rio Grande B. A.

Current Time: Jan 22, 2017 at 7:51:56 pm

Latest Report: Jan 22, 2017 at 7:00 pm


Visibility: N/A

Pressure: 29.53 "Hg

Humidity: 52%

Dew Point: 46 °F

Location of Río GrandeLocation

Past Weather in Río Grande — Graph

°F

Río Grande Temperature Yesterday

Maximum temperature yesterday: 64 °F (at 3:00 pm)
Minimum temperature yesterday: 37 °F (at 3:00 am)
Average temperature yesterday: 53 °F

High & Low Weather Summary for the Past Weeks

 TemperatureHumidityPressure
High70 °F (Jan 20, 2:00 pm)100% (Jan 14, 3:00 am)29.68 "Hg (Jan 14, 3:00 am)
Low34 °F (Jan 18, 5:00 am)42% (Jan 15, 9:00 pm)28.94 "Hg (Jan 16, 11:00 am)
Average52 °F76%29.35 "Hg
* Reported Jan 7 6:00 pm — Jan 22 6:00 pm, Río Grande, Weather by CustomWeather, © 2017

Note: Actual official high and low records may vary slightly from our data, if they occured in-between our weather recording intervals... More about our weather records

Advertising

Río Grande Weather History for the Previous 24 Hours

Scroll right to see more
 ConditionsComfort  
Time TempWeatherWind HumidityBarometerVisibility
6:00 pm
Sun, Jan 22
63 °FPartly sunny.22 mph52%29.56 "HgN/A
5:00 pm64 °FPartly sunny.25 mph46%29.59 "HgN/A
4:00 pm63 °FScattered clouds.24 mph56%29.59 "HgN/A
3:00 pm63 °FPartly sunny.25 mph59%29.62 "HgN/A
2:00 pm59 °FScattered clouds.23 mph68%29.62 "HgN/A
1:00 pm61 °FPartly sunny.26 mph68%29.62 "HgN/A
12:00 pm57 °FScattered clouds.18 mph77%29.65 "HgN/A
11:00 am59 °FPartly sunny.25 mph72%29.65 "HgN/A
10:00 am57 °FScattered clouds.25 mph77%29.65 "HgN/A
9:00 am54 °FScattered clouds.23 mph82%29.68 "HgN/A
8:00 am50 °FPassing clouds.14 mph88%29.68 "HgN/A
7:00 am50 °FScattered clouds.18 mph82%29.68 "HgN/A
6:00 am45 °FScattered clouds.12 mph93%29.68 "HgN/A
5:00 am43 °FPassing clouds.10 mph93%29.68 "HgN/A
3:00 am43 °FClear.12 mph93%29.68 "Hg10 mi
2:00 am43 °FClear.12 mph93%29.68 "Hg10 mi
1:00 am46 °FClear.14 mph100%29.68 "Hg10 mi
12:00 am43 °FClear.12 mph93%29.68 "Hg10 mi
11:00 pm
Sat, Jan 21
48 °FClear.16 mph71%29.68 "Hg10 mi
9:00 pm54 °FPassing clouds.22 mph82%29.65 "HgN/A
8:00 pm57 °FScattered clouds.20 mph77%29.65 "HgN/A
7:00 pm57 °FScattered clouds.23 mph77%29.65 "HgN/A
Weather by CustomWeather, © 2017

See weather overviewHow to use our weather pages